User: anonymous   Login
Location: Tierra Monte Subdivision
(35.2092°N, 106.4864°W)
Time: 10:18:05
(UTC+00:00)
Language:

Cosmos 2237 Rocket - Orbit

View from above orbital plane
View from above orbital plane
View from above satellite
View from above satellite

Ground track
Ground track

The orbit data is extracted from the following two-line orbital elements,

1 22566U 93016B   20183.89021699 +.00000121 +00000-0 +86967-4 0  9992
2 22566 071.0068 255.4465 0012296 247.6533 112.3287 14.14961177408373
Epoch (UTC): 01 July 2020 21:21:54
Eccentricity: 0.0012296
inclination: 71.0068°
perigee height: 833 km
apogee height: 851 km
right ascension of ascending node: 255.4465°
argument of perigee: 247.6533°
revolutions per day: 14.14961177
mean anomaly at epoch: 112.3287°
orbit number at epoch: 40837

The dashed part of the orbit path shows where the satellite is in the earth's shadow,  

DLR